This is the latest recevied weather packets stored in our database for station/object JH7UAX-10. If no packets are shown the sender has not sent any weather packets the latest 10 day(s).
| Time | Temp. | Humidity | Pressure | Rain* | Wind** | Luminosity | Snow |
|---|---|---|---|---|---|---|---|
| 1778036880 | 21.67° C | 47% | 1030.4 hPa | 0 mm | - | - | - |
| 1778036405 | 21.67° C | 48% | 1030.4 hPa | 0 mm | - | - | - |
| 1778035979 | 21.67° C | 47% | 1030.5 hPa | 0 mm | - | - | - |
| 1778035506 | 21.11° C | 46% | 1030.7 hPa | 0 mm | - | - | - |
| 1778035078 | 21.11° C | 49% | 1030.7 hPa | 0 mm | - | - | - |
| 1778034604 | 21.67° C | 47% | 1030.8 hPa | 0 mm | - | - | - |
| 1778034180 | 21.67° C | 49% | 1031 hPa | 0 mm | - | - | - |
| 1778033705 | 21.11° C | 48% | 1031 hPa | 0 mm | - | - | - |
| 1778033280 | 21.11° C | 50% | 1031.1 hPa | 0 mm | - | - | - |
| 1778032805 | 21.11° C | 49% | 1031 hPa | 0 mm | - | - | - |
| 1778032380 | 21.11° C | 46% | 1031.1 hPa | 0 mm | - | - | - |
| 1778031905 | 20.56° C | 47% | 1031.1 hPa | 0 mm | - | - | - |
| 1778031479 | 20.56° C | 47% | 1031.2 hPa | 0 mm | - | - | - |
| 1778030579 | 20.56° C | 49% | 1031.2 hPa | 0 mm | - | - | - |
| 1778029679 | 20.56° C | 46% | 1031.2 hPa | 0 mm | - | - | - |
| 1778029206 | 20.56° C | 46% | 1031.4 hPa | 0 mm | - | - | - |
| 1778028778 | 20.56° C | 46% | 1031.4 hPa | 0 mm | - | - | - |
| 1778028306 | 20.56° C | 47% | 1031.5 hPa | 0 mm | - | - | - |
| 1778027878 | 20.56° C | 47% | 1031.5 hPa | 0 mm | - | - | - |
| 1778027406 | 20.56° C | 48% | 1031.5 hPa | 0 mm | - | - | - |
| 1778026980 | 20.56° C | 46% | 1031.4 hPa | 0 mm | - | - | - |
| 1778026506 | 21.11° C | 47% | 1031.4 hPa | 0 mm | - | - | - |
| 1778026080 | 21.11° C | 47% | 1031.4 hPa | 0 mm | - | - | - |
| 1778025179 | 21.11° C | 47% | 1031.2 hPa | 0 mm | - | - | - |
| 1778024705 | 20.56° C | 48% | 1031.3 hPa | 0 mm | - | - | - |
* Rain latest hour (hover to see other rain measurements)
** Current wind speed in m/s (hover to see current wind gust speed)